Weather History for New Castle, PA

Change the Weather History Date:

Monday, February 11, 2013

  Actual Average Record
Temperature  
Mean Temperature 44 °F -  
Max Temperature 54 °F 38 °F 65 °F (2009)
Min Temperature 34 °F 16 °F -15 °F (1979)
Degree Days  
Heating Degree Days 21    
Moisture  
Dew Point 35 °F    
Average Humidity 82    
Maximum Humidity 100    
Minimum Humidity 47    
Precipitation  
Precipitation 0.04 in - - ()
Sea Level Pressure  
Sea Level Pressure 29.83 in    
Wind  
Wind Speed 9 mph (SSW)    
Max Wind Speed 25 mph    
Max Gust Speed 41 mph    
Visibility 8 miles    
Events Rain    
Averages and records for this station are not official NWS values.
T = Trace of Precipitation, MM = Missing Value Source: NWS Daily Summary

Daily Weather History Graph

Daily Weather History Graph

Search for Another Location

Airport:

Trip Planner

Search our weather history database for the weather conditions in past years. The results will help you decide how hot, cold, wet, or windy it might be!

Date:

Astronomy

Feb. 11, 2013 Rise Set
Actual Time 7:20 AM EST 5:51 PM EST
Civil Twilight 6:52 AM EST 6:19 PM EST
Nautical Twilight 6:20 AM EST 6:52 PM EST
Astronomical Twilight 5:48 AM EST 7:24 PM EST
Moon 7:43 AM EST (2/11) 7:48 PM EST (2/11)
Length of Visible Light 11h 27m
Length of Day
10h 30m
Waxing Crescent, 3% of the Moon is Illuminated
Feb 11
Waxing Crescent
Feb 17
First Quarter
Feb 25
Full
Mar 4
Last Quarter
Mar 11
New

Hourly Weather History & Observations

Time (EST) Temp. Windchill Dew Point Humidity Pressure Visibility Wind Dir Wind Speed Gust Speed Precip Events Conditions
12:26 AM 37.4 °F 32.1 °F 30.2 °F 75% 29.90 in 4.0 mi SE 6.9 mph - 0.02 in Rain Light Rain
12:40 AM 37.4 °F 33.8 °F 32.0 °F 81% 29.90 in 2.0 mi Variable 4.6 mph - 0.03 in Rain Light Rain
12:56 AM 36.9 °F 33.1 °F 32.9 °F 86% 29.97 in 10.0 mi Variable 4.6 mph - 0.03 in   Overcast
1:47 AM 37.4 °F 32.1 °F 35.6 °F 93% 29.87 in 7.0 mi SSE 6.9 mph - N/A   Overcast
1:56 AM 37.9 °F 32.1 °F 36.0 °F 93% 29.94 in 6.0 mi SSE 8.1 mph - N/A   Overcast
2:07 AM 37.4 °F 31.4 °F 35.6 °F 93% 29.86 in 7.0 mi SSE 8.1 mph - N/A   Overcast
2:56 AM 37.9 °F 31.5 °F 36.9 °F 96% 29.91 in 9.0 mi SSE 9.2 mph - N/A   Overcast
3:27 AM 37.4 °F 31.4 °F 37.4 °F 100% 29.83 in 3.0 mi SSE 8.1 mph - N/A   Overcast
3:45 AM 37.4 °F 32.1 °F 37.4 °F 100% 29.83 in 1.8 mi Variable 6.9 mph - N/A   Overcast
3:56 AM 37.9 °F 32.7 °F 36.9 °F 96% 29.89 in 1.8 mi Variable 6.9 mph - 0.01 in Rain Light Rain
3:58 AM 37.4 °F 33.8 °F 37.4 °F 100% 29.82 in 2.0 mi Variable 4.6 mph - 0.00 in Rain Light Rain
4:05 AM 37.4 °F 31.4 °F 37.4 °F 100% 29.82 in 2.5 mi SSE 8.1 mph - 0.00 in Rain Light Rain
4:14 AM 37.4 °F 30.8 °F 37.4 °F 100% 29.82 in 4.0 mi SSE 9.2 mph - 0.00 in   Overcast
4:56 AM 38.8 °F 33.2 °F 37.9 °F 97% 29.87 in 10.0 mi South 8.1 mph - 0.00 in   Overcast
5:31 AM 39.2 °F 34.2 °F 37.4 °F 93% 29.80 in 7.0 mi Variable 6.9 mph - N/A   Overcast
5:56 AM 39.9 °F 37.8 °F 38.8 °F 96% 29.86 in 8.0 mi Variable 3.5 mph - N/A   Overcast
6:10 AM 39.2 °F 35.9 °F 39.2 °F 100% 29.78 in 9.0 mi Variable 4.6 mph - N/A   Overcast
6:23 AM 41.0 °F 37.1 °F 39.2 °F 93% 29.78 in 10.0 mi Variable 5.8 mph - N/A   Overcast
6:33 AM 41.0 °F 38.0 °F 39.2 °F 93% 29.78 in 10.0 mi Variable 4.6 mph - N/A   Overcast
6:56 AM 41.9 °F - 39.9 °F 93% 29.83 in 10.0 mi Calm Calm - N/A   Overcast
7:16 AM 42.8 °F 38.0 °F 41.0 °F 93% 29.76 in 10.0 mi South 8.1 mph - N/A   Mostly Cloudy
7:36 AM 42.8 °F 37.5 °F 41.0 °F 93% 29.77 in 10.0 mi SW 9.2 mph - N/A   Mostly Cloudy
7:56 AM 43.9 °F 39.9 °F 41.9 °F 93% 29.83 in 10.0 mi Variable 6.9 mph - N/A   Overcast
8:28 AM 44.6 °F 40.2 °F 42.8 °F 93% 29.75 in 10.0 mi South 8.1 mph - N/A   Mostly Cloudy
8:37 AM 44.6 °F 39.7 °F 42.8 °F 93% 29.75 in 10.0 mi South 9.2 mph - N/A   Partly Cloudy
8:56 AM 45.9 °F 40.4 °F 41.9 °F 86% 29.81 in 10.0 mi South 11.5 mph - N/A   Scattered Clouds
9:16 AM 46.4 °F 41.5 °F 42.8 °F 87% 29.74 in 10.0 mi South 10.4 mph - N/A   Mostly Cloudy
9:23 AM 48.2 °F - 42.8 °F 82% 29.74 in 10.0 mi SSW 8.1 mph - N/A   Scattered Clouds
9:56 AM 50.0 °F - 43.9 °F 79% 29.78 in 10.0 mi SSW 11.5 mph - N/A   Mostly Cloudy
10:56 AM 50.9 °F - 41.0 °F 69% 29.76 in 10.0 mi SW 16.1 mph 24.2 mph N/A   Mostly Cloudy
11:56 AM 52.9 °F - 37.9 °F 57% 29.73 in 10.0 mi SW 17.3 mph 28.8 mph N/A   Mostly Cloudy
12:56 PM 54.9 °F - 34.9 °F 47% 29.72 in 10.0 mi SW 20.7 mph 41.4 mph N/A   Mostly Cloudy
1:56 PM 54.0 °F - 36.0 °F 51% 29.71 in 10.0 mi WSW 25.3 mph 36.8 mph N/A   Scattered Clouds
2:56 PM 47.8 °F - 34.0 °F 59% 29.76 in 10.0 mi West 15.0 mph - N/A   Scattered Clouds
3:56 PM 45.9 °F 39.1 °F 32.0 °F 58% 29.80 in 10.0 mi WSW 16.1 mph - N/A   Partly Cloudy
4:56 PM 41.9 °F 32.6 °F 28.0 °F 58% 29.84 in 10.0 mi West 21.9 mph 32.2 mph N/A   Partly Cloudy
5:56 PM 36.9 °F 25.1 °F 24.1 °F 60% 29.89 in 10.0 mi WSW 25.3 mph 31.1 mph N/A   Scattered Clouds
6:56 PM 36.0 °F 25.6 °F 24.1 °F 62% 29.92 in 10.0 mi WSW 18.4 mph - N/A   Mostly Cloudy
7:56 PM 34.9 °F 25.7 °F 25.2 °F 68% 29.93 in 10.0 mi WSW 13.8 mph - N/A   Overcast
8:56 PM 34.0 °F 25.5 °F 24.1 °F 67% 29.95 in 10.0 mi WSW 11.5 mph - N/A   Mostly Cloudy
9:56 PM 34.0 °F 24.2 °F 23.0 °F 64% 29.96 in 10.0 mi WSW 15.0 mph 24.2 mph N/A   Mostly Cloudy
10:56 PM 34.0 °F 24.2 °F 22.1 °F 62% 29.96 in 10.0 mi WSW 15.0 mph 28.8 mph N/A   Mostly Cloudy
11:56 PM 34.0 °F 23.4 °F 23.0 °F 64% 29.96 in 10.0 mi SW 17.3 mph 25.3 mph 0.00 in   Overcast